Location: Bad Dürkheim
(49.4618°N, 8.1724°E)
Time: 04:08:29
(UTC+00:00)

Cosmos 2016 Rocket - Pass Details

Date: 14 June 2025
Orbit: 947 x 998 km, 83.0° (Epoch: 12 July)

Event Time Altitude Azimuth Distance (km) Brightness Sun altitude
Rises 20:58:08 0° 351° (N) 3,702 8.3 -10.0°
Reaches altitude 10° 21:00:40 10° 354° (N) 2,757 7.4 -10.2°
Maximum altitude 21:07:00 72° 79° (ENE) 1,046 4.1 -10.8°
Enters shadow 21:12:39 13° 163° (SSE) 2,510 5.5 -11.3°
